<?xml version="1.0" encoding="UTF-8" standalone="no" ?>
<gpx xmlns="http://www.topografix.com/GPX/1/1" xmlns:xsi="http://www.w3.org/2001/XMLSchema-instance" xsi:schemaLocation="http://www.topografix.com/GPX/1/1 http://www.topografix.com/GPX/1/1/gpx.xsd" version="1.1" creator="VisuGPX - https://www.visugpx.com">
  <metadata>
    <name>122011</name>
    <desc><![CDATA[superbe rando ce dimanche]]></desc>
  </metadata>
  <trk>
    <name><![CDATA[ACTIVE LOG072323]]></name>
    <trkseg>
      <trkpt lat="48.38266" lon="-4.50622">
        <ele>93.609</ele>
        <time>2011-04-10T05:23:23Z</time>
      </trkpt>
      <trkpt lat="48.38266" lon="-4.50622">
        <ele>90.571</ele>
        <time>2011-04-10T05:23:58Z</time>
      </trkpt>
      <trkpt lat="48.38266" lon="-4.50622">
        <ele>91.361</ele>
        <time>2011-04-10T05:24:03Z</time>
      </trkpt>
      <trkpt lat="48.38266" lon="-4.50622">
        <ele>89.863</ele>
        <time>2011-04-10T05:24:04Z</time>
      </trkpt>
      <trkpt lat="48.38266" lon="-4.50622">
        <ele>87.625</ele>
        <time>2011-04-10T05:24:22Z</time>
      </trkpt>
      <trkpt lat="48.3826" lon="-4.5035">
        <ele>87.379</ele>
        <time>2011-04-10T05:24:37Z</time>
      </trkpt>
      <trkpt lat="48.38249" lon="-4.50324">
        <ele>86.303</ele>
        <time>2011-04-10T05:24:51Z</time>
      </trkpt>
      <trkpt lat="48.38226" lon="-4.50264">
        <ele>84.404</ele>
        <time>2011-04-10T05:25:00Z</time>
      </trkpt>
      <trkpt lat="48.38232" lon="-4.50217">
        <ele>83.851</ele>
        <time>2011-04-10T05:25:05Z</time>
      </trkpt>
      <trkpt lat="48.38257" lon="-4.50211">
        <ele>83.307</ele>
        <time>2011-04-10T05:25:11Z</time>
      </trkpt>
      <trkpt lat="48.38311" lon="-4.50227">
        <ele>80.136</ele>
        <time>2011-04-10T05:25:23Z</time>
      </trkpt>
      <trkpt lat="48.38345" lon="-4.50237">
        <ele>77.761</ele>
        <time>2011-04-10T05:25:29Z</time>
      </trkpt>
      <trkpt lat="48.38383" lon="-4.50242">
        <ele>74.463</ele>
        <time>2011-04-10T05:25:37Z</time>
      </trkpt>
      <trkpt lat="48.38383" lon="-4.50242">
        <ele>73.433</ele>
        <time>2011-04-10T05:25:46Z</time>
      </trkpt>
      <trkpt lat="48.38383" lon="-4.50242">
        <ele>72.846</ele>
        <time>2011-04-10T05:26:05Z</time>
      </trkpt>
      <trkpt lat="48.3843" lon="-4.50256">
        <ele>74.167</ele>
        <time>2011-04-10T05:26:15Z</time>
      </trkpt>
      <trkpt lat="48.38433" lon="-4.50256">
        <ele>74.934</ele>
        <time>2011-04-10T05:26:17Z</time>
      </trkpt>
      <trkpt lat="48.38454" lon="-4.50261">
        <ele>78.197</ele>
        <time>2011-04-10T05:26:26Z</time>
      </trkpt>
      <trkpt lat="48.38497" lon="-4.50273">
        <ele>81.391</ele>
        <time>2011-04-10T05:26:38Z</time>
      </trkpt>
      <trkpt lat="48.38521" lon="-4.50281">
        <ele>84.229</ele>
        <time>2011-04-10T05:26:52Z</time>
      </trkpt>
      <trkpt lat="48.38552" lon="-4.5029">
        <ele>87.141</ele>
        <time>2011-04-10T05:27:03Z</time>
      </trkpt>
      <trkpt lat="48.38582" lon="-4.50296">
        <ele>90.135</ele>
        <time>2011-04-10T05:27:17Z</time>
      </trkpt>
      <trkpt lat="48.38624" lon="-4.50304">
        <ele>91.543</ele>
        <time>2011-04-10T05:27:28Z</time>
      </trkpt>
      <trkpt lat="48.38691" lon="-4.50314">
        <ele>94.135</ele>
        <time>2011-04-10T05:27:49Z</time>
      </trkpt>
      <trkpt lat="48.38742" lon="-4.50325">
        <ele>93.02</ele>
        <time>2011-04-10T05:28:03Z</time>
      </trkpt>
      <trkpt lat="48.38784" lon="-4.50336">
        <ele>90.999</ele>
        <time>2011-04-10T05:28:11Z</time>
      </trkpt>
      <trkpt lat="48.38812" lon="-4.50341">
        <ele>87.279</ele>
        <time>2011-04-10T05:28:16Z</time>
      </trkpt>
      <trkpt lat="48.3886" lon="-4.5035">
        <ele>83.829</ele>
        <time>2011-04-10T05:28:23Z</time>
      </trkpt>
      <trkpt lat="48.38875" lon="-4.50353">
        <ele>83.134</ele>
        <time>2011-04-10T05:28:25Z</time>
      </trkpt>
      <trkpt lat="48.38918" lon="-4.50361">
        <ele>79.737</ele>
        <time>2011-04-10T05:28:31Z</time>
      </trkpt>
      <trkpt lat="48.3895" lon="-4.50366">
        <ele>76.245</ele>
        <time>2011-04-10T05:28:36Z</time>
      </trkpt>
      <trkpt lat="48.38979" lon="-4.50362">
        <ele>72.943</ele>
        <time>2011-04-10T05:28:41Z</time>
      </trkpt>
      <trkpt lat="48.38996" lon="-4.50359">
        <ele>71.312</ele>
        <time>2011-04-10T05:28:44Z</time>
      </trkpt>
      <trkpt lat="48.39011" lon="-4.50358">
        <ele>70.336</ele>
        <time>2011-04-10T05:28:47Z</time>
      </trkpt>
      <trkpt lat="48.3909" lon="-4.50361">
        <ele>68.672</ele>
        <time>2011-04-10T05:29:04Z</time>
      </trkpt>
      <trkpt lat="48.39099" lon="-4.50361">
        <ele>68.648</ele>
        <time>2011-04-10T05:29:06Z</time>
      </trkpt>
      <trkpt lat="48.39147" lon="-4.50369">
        <ele>68.723</ele>
        <time>2011-04-10T05:29:17Z</time>
      </trkpt>
      <trkpt lat="48.39173" lon="-4.50377">
        <ele>69.891</ele>
        <time>2011-04-10T05:29:23Z</time>
      </trkpt>
      <trkpt lat="48.39203" lon="-4.50362">
        <ele>69.489</ele>
        <time>2011-04-10T05:29:33Z</time>
      </trkpt>
      <trkpt lat="48.39211" lon="-4.50323">
        <ele>69.221</ele>
        <time>2011-04-10T05:29:35Z</time>
      </trkpt>
      <trkpt lat="48.39242" lon="-4.50162">
        <ele>71.662</ele>
        <time>2011-04-10T05:29:59Z</time>
      </trkpt>
      <trkpt lat="48.39284" lon="-4.49958">
        <ele>72.08</ele>
        <time>2011-04-10T05:30:27Z</time>
      </trkpt>
      <trkpt lat="48.393" lon="-4.49886">
        <ele>70.817</ele>
        <time>2011-04-10T05:30:36Z</time>
      </trkpt>
      <trkpt lat="48.3932" lon="-4.49793">
        <ele>67.56</ele>
        <time>2011-04-10T05:30:46Z</time>
      </trkpt>
      <trkpt lat="48.39347" lon="-4.49661">
        <ele>63.768</ele>
        <time>2011-04-10T05:30:58Z</time>
      </trkpt>
      <trkpt lat="48.39368" lon="-4.49559">
        <ele>61.698</ele>
        <time>2011-04-10T05:31:08Z</time>
      </trkpt>
      <trkpt lat="48.39388" lon="-4.49461">
        <ele>59.843</ele>
        <time>2011-04-10T05:31:18Z</time>
      </trkpt>
      <trkpt lat="48.39392" lon="-4.49439">
        <ele>60.111</ele>
        <time>2011-04-10T05:31:21Z</time>
      </trkpt>
      <trkpt lat="48.394" lon="-4.49396">
        <ele>58.688</ele>
        <time>2011-04-10T05:31:31Z</time>
      </trkpt>
      <trkpt lat="48.39412" lon="-4.49359">
        <ele>57.331</ele>
        <time>2011-04-10T05:31:42Z</time>
      </trkpt>
      <trkpt lat="48.39386" lon="-4.49296">
        <ele>58.021</ele>
        <time>2011-04-10T05:31:52Z</time>
      </trkpt>
      <trkpt lat="48.39369" lon="-4.4926">
        <ele>58.297</ele>
        <time>2011-04-10T05:31:59Z</time>
      </trkpt>
      <trkpt lat="48.39356" lon="-4.49236">
        <ele>58.618</ele>
        <time>2011-04-10T05:32:04Z</time>
      </trkpt>
      <trkpt lat="48.39346" lon="-4.49216">
        <ele>58.306</ele>
        <time>2011-04-10T05:32:08Z</time>
      </trkpt>
      <trkpt lat="48.39314" lon="-4.49163">
        <ele>61.778</ele>
        <time>2011-04-10T05:32:21Z</time>
      </trkpt>
      <trkpt lat="48.39293" lon="-4.49126">
        <ele>64.885</ele>
        <time>2011-04-10T05:32:36Z</time>
      </trkpt>
      <trkpt lat="48.39246" lon="-4.4904">
        <ele>67.473</ele>
        <time>2011-04-10T05:32:54Z</time>
      </trkpt>
      <trkpt lat="48.39216" lon="-4.48982">
        <ele>69.489</ele>
        <time>2011-04-10T05:33:08Z</time>
      </trkpt>
      <trkpt lat="48.39188" lon="-4.48926">
        <ele>71.124</ele>
        <time>2011-04-10T05:33:21Z</time>
      </trkpt>
      <trkpt lat="48.39146" lon="-4.48845">
        <ele>72.498</ele>
        <time>2011-04-10T05:33:40Z</time>
      </trkpt>
      <trkpt lat="48.39141" lon="-4.48814">
        <ele>72.3</ele>
        <time>2011-04-10T05:33:48Z</time>
      </trkpt>
      <trkpt lat="48.39197" lon="-4.4875">
        <ele>74.798</ele>
        <time>2011-04-10T05:34:08Z</time>
      </trkpt>
      <trkpt lat="48.39199" lon="-4.48749">
        <ele>75.692</ele>
        <time>2011-04-10T05:34:14Z</time>
      </trkpt>
      <trkpt lat="48.39311" lon="-4.48782">
        <ele>77.906</ele>
        <time>2011-04-10T05:34:40Z</time>
      </trkpt>
      <trkpt lat="48.39393" lon="-4.48805">
        <ele>79.752</ele>
        <time>2011-04-10T05:35:01Z</time>
      </trkpt>
      <trkpt lat="48.395" lon="-4.48836">
        <ele>82.979</ele>
        <time>2011-04-10T05:35:27Z</time>
      </trkpt>
      <trkpt lat="48.39624" lon="-4.48869">
        <ele>81.497</ele>
        <time>2011-04-10T05:35:55Z</time>
      </trkpt>
      <trkpt lat="48.39666" lon="-4.48882">
        <ele>79.161</ele>
        <time>2011-04-10T05:36:02Z</time>
      </trkpt>
      <trkpt lat="48.39733" lon="-4.48902">
        <ele>77.591</ele>
        <time>2011-04-10T05:36:16Z</time>
      </trkpt>
      <trkpt lat="48.39736" lon="-4.48903">
        <ele>77.49</ele>
        <time>2011-04-10T05:36:29Z</time>
      </trkpt>
      <trkpt lat="48.39752" lon="-4.48907">
        <ele>76.415</ele>
        <time>2011-04-10T05:36:50Z</time>
      </trkpt>
      <trkpt lat="48.3978" lon="-4.48893">
        <ele>75.467</ele>
        <time>2011-04-10T05:36:55Z</time>
      </trkpt>
      <trkpt lat="48.398" lon="-4.48878">
        <ele>74.935</ele>
        <time>2011-04-10T05:36:59Z</time>
      </trkpt>
      <trkpt lat="48.39813" lon="-4.48857">
        <ele>75.61</ele>
        <time>2011-04-10T05:37:03Z</time>
      </trkpt>
      <trkpt lat="48.39881" lon="-4.48749">
        <ele>74.889</ele>
        <time>2011-04-10T05:37:24Z</time>
      </trkpt>
      <trkpt lat="48.39881" lon="-4.48749">
        <ele>72.815</ele>
        <time>2011-04-10T05:37:28Z</time>
      </trkpt>
      <trkpt lat="48.39962" lon="-4.48628">
        <ele>71.256</ele>
        <time>2011-04-10T05:37:45Z</time>
      </trkpt>
      <trkpt lat="48.39967" lon="-4.4862">
        <ele>70.889</ele>
        <time>2011-04-10T05:37:57Z</time>
      </trkpt>
      <trkpt lat="48.39975" lon="-4.48607">
        <ele>69.312</ele>
        <time>2011-04-10T05:38:19Z</time>
      </trkpt>
      <trkpt lat="48.40034" lon="-4.48522">
        <ele>66.055</ele>
        <time>2011-04-10T05:38:31Z</time>
      </trkpt>
      <trkpt lat="48.40054" lon="-4.48493">
        <ele>66.92</ele>
        <time>2011-04-10T05:38:36Z</time>
      </trkpt>
      <trkpt lat="48.40099" lon="-4.48431">
        <ele>70.028</ele>
        <time>2011-04-10T05:38:48Z</time>
      </trkpt>
      <trkpt lat="48.40134" lon="-4.48371">
        <ele>73.085</ele>
        <time>2011-04-10T05:39:01Z</time>
      </trkpt>
      <trkpt lat="48.40169" lon="-4.48328">
        <ele>76.369</ele>
        <time>2011-04-10T05:39:15Z</time>
      </trkpt>
      <trkpt lat="48.40245" lon="-4.4821">
        <ele>79.446</ele>
        <time>2011-04-10T05:39:41Z</time>
      </trkpt>
      <trkpt lat="48.4027" lon="-4.48174">
        <ele>79.645</ele>
        <time>2011-04-10T05:39:54Z</time>
      </trkpt>
      <trkpt lat="48.4034" lon="-4.4807">
        <ele>79.356</ele>
        <time>2011-04-10T05:40:16Z</time>
      </trkpt>
      <trkpt lat="48.40433" lon="-4.47934">
        <ele>78.457</ele>
        <time>2011-04-10T05:40:42Z</time>
      </trkpt>
      <trkpt lat="48.40504" lon="-4.47832">
        <ele>77.947</ele>
        <time>2011-04-10T05:41:02Z</time>
      </trkpt>
      <trkpt lat="48.40512" lon="-4.47821">
        <ele>77.265</ele>
        <time>2011-04-10T05:41:04Z</time>
      </trkpt>
      <trkpt lat="48.4052" lon="-4.47809">
        <ele>76.791</ele>
        <time>2011-04-10T05:41:06Z</time>
      </trkpt>
      <trkpt lat="48.40535" lon="-4.47787">
        <ele>76.222</ele>
        <time>2011-04-10T05:41:10Z</time>
      </trkpt>
      <trkpt lat="48.40608" lon="-4.47673">
        <ele>79.294</ele>
        <time>2011-04-10T05:41:30Z</time>
      </trkpt>
      <trkpt lat="48.40619" lon="-4.47657">
        <ele>79.447</ele>
        <time>2011-04-10T05:41:33Z</time>
      </trkpt>
      <trkpt lat="48.40623" lon="-4.4765">
        <ele>77.458</ele>
        <time>2011-04-10T05:41:37Z</time>
      </trkpt>
      <trkpt lat="48.40652" lon="-4.47616">
        <ele>76.092</ele>
        <time>2011-04-10T05:41:40Z</time>
      </trkpt>
      <trkpt lat="48.40669" lon="-4.47587">
        <ele>73.924</ele>
        <time>2011-04-10T05:41:44Z</time>
      </trkpt>
      <trkpt lat="48.40681" lon="-4.47551">
        <ele>73.422</ele>
        <time>2011-04-10T05:41:48Z</time>
      </trkpt>
      <trkpt lat="48.40715" lon="-4.47537">
        <ele>71.726</ele>
        <time>2011-04-10T05:41:54Z</time>
      </trkpt>
      <trkpt lat="48.40736" lon="-4.47535">
        <ele>70.913</ele>
        <time>2011-04-10T05:41:57Z</time>
      </trkpt>
      <trkpt lat="48.40788" lon="-4.47546">
        <ele>74.408</ele>
        <time>2011-04-10T05:42:07Z</time>
      </trkpt>
      <trkpt lat="48.40826" lon="-4.47566">
        <ele>76.444</ele>
        <time>2011-04-10T05:42:17Z</time>
      </trkpt>
      <trkpt lat="48.40895" lon="-4.47602">
        <ele>78.025</ele>
        <time>2011-04-10T05:42:34Z</time>
      </trkpt>
      <trkpt lat="48.40999" lon="-4.47622">
        <ele>80.578</ele>
        <time>2011-04-10T05:42:58Z</time>
      </trkpt>
      <trkpt lat="48.41087" lon="-4.47629">
        <ele>79.542</ele>
        <time>2011-04-10T05:43:16Z</time>
      </trkpt>
      <trkpt lat="48.41198" lon="-4.47596">
        <ele>80.989</ele>
        <time>2011-04-10T05:43:39Z</time>
      </trkpt>
      <trkpt lat="48.41231" lon="-4.47588">
        <ele>80.971</ele>
        <time>2011-04-10T05:43:46Z</time>
      </trkpt>
      <trkpt lat="48.41243" lon="-4.47566">
        <ele>81.532</ele>
        <time>2011-04-10T05:43:50Z</time>
      </trkpt>
      <trkpt lat="48.41263" lon="-4.47573">
        <ele>81.322</ele>
        <time>2011-04-10T05:43:55Z</time>
      </trkpt>
      <trkpt lat="48.41296" lon="-4.47561">
        <ele>82.463</ele>
        <time>2011-04-10T05:44:01Z</time>
      </trkpt>
      <trkpt lat="48.41389" lon="-4.47521">
        <ele>85.538</ele>
        <time>2011-04-10T05:44:24Z</time>
      </trkpt>
      <trkpt lat="48.41475" lon="-4.47515">
        <ele>88.293</ele>
        <time>2011-04-10T05:44:46Z</time>
      </trkpt>
      <trkpt lat="48.41529" lon="-4.47533">
        <ele>91.386</ele>
        <time>2011-04-10T05:45:01Z</time>
      </trkpt>
      <trkpt lat="48.41576" lon="-4.47552">
        <ele>94.666</ele>
        <time>2011-04-10T05:45:14Z</time>
      </trkpt>
      <trkpt lat="48.41618" lon="-4.47575">
        <ele>97.717</ele>
        <time>2011-04-10T05:45:27Z</time>
      </trkpt>
      <trkpt lat="48.41658" lon="-4.47597">
        <ele>100.972</ele>
        <time>2011-04-10T05:45:38Z</time>
      </trkpt>
      <trkpt lat="48.4171" lon="-4.47626">
        <ele>102.5</ele>
        <time>2011-04-10T05:45:53Z</time>
      </trkpt>
      <trkpt lat="48.41796" lon="-4.47667">
        <ele>99.514</ele>
        <time>2011-04-10T05:46:14Z</time>
      </trkpt>
      <trkpt lat="48.41873" lon="-4.47676">
        <ele>96.29</ele>
        <time>2011-04-10T05:46:27Z</time>
      </trkpt>
      <trkpt lat="48.41957" lon="-4.47687">
        <ele>92.87</ele>
        <time>2011-04-10T05:46:39Z</time>
      </trkpt>
      <trkpt lat="48.42039" lon="-4.47704">
        <ele>89.297</ele>
        <time>2011-04-10T05:46:50Z</time>
      </trkpt>
      <trkpt lat="48.4207" lon="-4.47711">
        <ele>88.663</ele>
        <time>2011-04-10T05:46:54Z</time>
      </trkpt>
      <trkpt lat="48.42108" lon="-4.4771">
        <ele>88.631</ele>
        <time>2011-04-10T05:46:59Z</time>
      </trkpt>
      <trkpt lat="48.42169" lon="-4.47686">
        <ele>91.845</ele>
        <time>2011-04-10T05:47:10Z</time>
      </trkpt>
      <trkpt lat="48.4224" lon="-4.47645">
        <ele>94.938</ele>
        <time>2011-04-10T05:47:26Z</time>
      </trkpt>
      <trkpt lat="48.42272" lon="-4.47624">
        <ele>96.866</ele>
        <time>2011-04-10T05:47:34Z</time>
      </trkpt>
      <trkpt lat="48.42284" lon="-4.47616">
        <ele>97.39</ele>
        <time>2011-04-10T05:47:38Z</time>
      </trkpt>
      <trkpt lat="48.42284" lon="-4.47616">
        <ele>97.115</ele>
        <time>2011-04-10T05:47:40Z</time>
      </trkpt>
      <trkpt lat="48.42305" lon="-4.47578">
        <ele>97.044</ele>
        <time>2011-04-10T05:47:44Z</time>
      </trkpt>
      <trkpt lat="48.42394" lon="-4.47414">
        <ele>96.439</ele>
        <time>2011-04-10T05:48:12Z</time>
      </trkpt>
      <trkpt lat="48.42436" lon="-4.47326">
        <ele>97.119</ele>
        <time>2011-04-10T05:48:26Z</time>
      </trkpt>
      <trkpt lat="48.42452" lon="-4.47311">
        <ele>97.769</ele>
        <time>2011-04-10T05:48:30Z</time>
      </trkpt>
      <trkpt lat="48.42564" lon="-4.47276">
        <ele>98.714</ele>
        <time>2011-04-10T05:48:53Z</time>
      </trkpt>
      <trkpt lat="48.42567" lon="-4.47277">
        <ele>98.951</ele>
        <time>2011-04-10T05:48:56Z</time>
      </trkpt>
      <trkpt lat="48.42589" lon="-4.47277">
        <ele>99.179</ele>
        <time>2011-04-10T05:49:00Z</time>
      </trkpt>
      <trkpt lat="48.42589" lon="-4.47285">
        <ele>99.373</ele>
        <time>2011-04-10T05:49:02Z</time>
      </trkpt>
      <trkpt lat="48.42623" lon="-4.47316">
        <ele>98.972</ele>
        <time>2011-04-10T05:49:08Z</time>
      </trkpt>
      <trkpt lat="48.42716" lon="-4.4735">
        <ele>97.099</ele>
        <time>2011-04-10T05:49:25Z</time>
      </trkpt>
      <trkpt lat="48.42732" lon="-4.47356">
        <ele>97.461</ele>
        <time>2011-04-10T05:49:28Z</time>
      </trkpt>
      <trkpt lat="48.42752" lon="-4.47362">
        <ele>97.985</ele>
        <time>2011-04-10T05:49:33Z</time>
      </trkpt>
      <trkpt lat="48.42761" lon="-4.47367">
        <ele>97.918</ele>
        <time>2011-04-10T05:49:38Z</time>
      </trkpt>
      <trkpt lat="48.42754" lon="-4.47395">
        <ele>97.904</ele>
        <time>2011-04-10T05:49:41Z</time>
      </trkpt>
      <trkpt lat="48.42733" lon="-4.47536">
        <ele>99.218</ele>
        <time>2011-04-10T05:50:01Z</time>
      </trkpt>
      <trkpt lat="48.42706" lon="-4.47612">
        <ele>98.697</ele>
        <time>2011-04-10T05:50:12Z</time>
      </trkpt>
      <trkpt lat="48.42725" lon="-4.47646">
        <ele>99.498</ele>
        <time>2011-04-10T05:50:19Z</time>
      </trkpt>
      <trkpt lat="48.4273" lon="-4.47647">
        <ele>99.528</ele>
        <time>2011-04-10T05:50:20Z</time>
      </trkpt>
      <trkpt lat="48.42864" lon="-4.47676">
        <ele>99.85</ele>
        <time>2011-04-10T05:50:45Z</time>
      </trkpt>
      <trkpt lat="48.43021" lon="-4.4771">
        <ele>98.238</ele>
        <time>2011-04-10T05:51:12Z</time>
      </trkpt>
      <trkpt lat="48.43089" lon="-4.47728">
        <ele>94.717</ele>
        <time>2011-04-10T05:51:23Z</time>
      </trkpt>
      <trkpt lat="48.43118" lon="-4.47735">
        <ele>93.127</ele>
        <time>2011-04-10T05:51:27Z</time>
      </trkpt>
      <trkpt lat="48.43164" lon="-4.47747">
        <ele>90.513</ele>
        <time>2011-04-10T05:51:33Z</time>
      </trkpt>
      <trkpt lat="48.43215" lon="-4.4776">
        <ele>87.179</ele>
        <time>2011-04-10T05:51:39Z</time>
      </trkpt>
      <trkpt lat="48.43224" lon="-4.47763">
        <ele>86.9</ele>
        <time>2011-04-10T05:51:40Z</time>
      </trkpt>
      <trkpt lat="48.43257" lon="-4.47781">
        <ele>83.756</ele>
        <time>2011-04-10T05:51:44Z</time>
      </trkpt>
      <trkpt lat="48.43265" lon="-4.47787">
        <ele>83.652</ele>
        <time>2011-04-10T05:51:45Z</time>
      </trkpt>
      <trkpt lat="48.43335" lon="-4.47837">
        <ele>86.841</ele>
        <time>2011-04-10T05:51:55Z</time>
      </trkpt>
      <trkpt lat="48.43355" lon="-4.47852">
        <ele>87.981</ele>
        <time>2011-04-10T05:51:59Z</time>
      </trkpt>
      <trkpt lat="48.43422" lon="-4.47884">
        <ele>88.943</ele>
        <time>2011-04-10T05:52:12Z</time>
      </trkpt>
      <trkpt lat="48.43451" lon="-4.47891">
        <ele>87.327</ele>
        <time>2011-04-10T05:52:17Z</time>
      </trkpt>
      <trkpt lat="48.43464" lon="-4.47895">
        <ele>86.61</ele>
        <time>2011-04-10T05:52:19Z</time>
      </trkpt>
      <trkpt lat="48.43494" lon="-4.47898">
        <ele>84.172</ele>
        <time>2011-04-10T05:52:23Z</time>
      </trkpt>
      <trkpt lat="48.43502" lon="-4.47897">
        <ele>83.663</ele>
        <time>2011-04-10T05:52:24Z</time>
      </trkpt>
      <trkpt lat="48.43559" lon="-4.47892">
        <ele>79.687</ele>
        <time>2011-04-10T05:52:31Z</time>
      </trkpt>
      <trkpt lat="48.43572" lon="-4.4789">
        <ele>77.165</ele>
        <time>2011-04-10T05:52:35Z</time>
      </trkpt>
      <trkpt lat="48.43642" lon="-4.47884">
        <ele>73.911</ele>
        <time>2011-04-10T05:52:40Z</time>
      </trkpt>
      <trkpt lat="48.43667" lon="-4.47882">
        <ele>73.599</ele>
        <time>2011-04-10T05:52:43Z</time>
      </trkpt>
      <trkpt lat="48.43709" lon="-4.4785">
        <ele>74.959</ele>
        <time>2011-04-10T05:52:49Z</time>
      </trkpt>
      <trkpt lat="48.43798" lon="-4.47733">
        <ele>76.879</ele>
        <time>2011-04-10T05:53:07Z</time>
      </trkpt>
      <trkpt lat="48.43882" lon="-4.47687">
        <ele>79.179</ele>
        <time>2011-04-10T05:53:24Z</time>
      </trkpt>
      <trkpt lat="48.43887" lon="-4.47685">
        <ele>79.552</ele>
        <time>2011-04-10T05:53:25Z</time>
      </trkpt>
      <trkpt lat="48.44017" lon="-4.47685">
        <ele>82.296</ele>
        <time>2011-04-10T05:53:50Z</time>
      </trkpt>
      <trkpt lat="48.44028" lon="-4.47686">
        <ele>81.877</ele>
        <time>2011-04-10T05:53:52Z</time>
      </trkpt>
      <trkpt lat="48.44038" lon="-4.47688">
        <ele>81.427</ele>
        <time>2011-04-10T05:53:54Z</time>
      </trkpt>
      <trkpt lat="48.44091" lon="-4.47689">
        <ele>77.673</ele>
        <time>2011-04-10T05:54:03Z</time>
      </trkpt>
      <trkpt lat="48.44185" lon="-4.47654">
        <ele>77.233</ele>
        <time>2011-04-10T05:54:18Z</time>
      </trkpt>
      <trkpt lat="48.4425" lon="-4.47623">
        <ele>80.452</ele>
        <time>2011-04-10T05:54:28Z</time>
      </trkpt>
      <trkpt lat="48.44298" lon="-4.47599">
        <ele>83.553</ele>
        <time>2011-04-10T05:54:39Z</time>
      </trkpt>
      <trkpt lat="48.44336" lon="-4.47579">
        <ele>85.942</ele>
        <time>2011-04-10T05:54:48Z</time>
      </trkpt>
      <trkpt lat="48.44429" lon="-4.47534">
        <ele>86.102</ele>
        <time>2011-04-10T05:55:09Z</time>
      </trkpt>
      <trkpt lat="48.44469" lon="-4.47525">
        <ele>82.806</ele>
        <time>2011-04-10T05:55:15Z</time>
      </trkpt>
      <trkpt lat="48.445" lon="-4.47521">
        <ele>79.774</ele>
        <time>2011-04-10T05:55:19Z</time>
      </trkpt>
      <trkpt lat="48.44517" lon="-4.47522">
        <ele>78.894</ele>
        <time>2011-04-10T05:55:21Z</time>
      </trkpt>
      <trkpt lat="48.44546" lon="-4.47538">
        <ele>74.477</ele>
        <time>2011-04-10T05:55:26Z</time>
      </trkpt>
      <trkpt lat="48.44645" lon="-4.47614">
        <ele>77.006</ele>
        <time>2011-04-10T05:55:39Z</time>
      </trkpt>
      <trkpt lat="48.44675" lon="-4.47637">
        <ele>79.024</ele>
        <time>2011-04-10T05:55:46Z</time>
      </trkpt>
      <trkpt lat="48.44712" lon="-4.47643">
        <ele>80.753</ele>
        <time>2011-04-10T05:55:52Z</time>
      </trkpt>
      <trkpt lat="48.44726" lon="-4.47645">
        <ele>81.388</ele>
        <time>2011-04-10T05:55:55Z</time>
      </trkpt>
      <trkpt lat="48.44762" lon="-4.47646">
        <ele>83.455</ele>
        <time>2011-04-10T05:56:03Z</time>
      </trkpt>
      <trkpt lat="48.44773" lon="-4.47646">
        <ele>83.784</ele>
        <time>2011-04-10T05:56:06Z</time>
      </trkpt>
      <trkpt lat="48.44874" lon="-4.47628">
        <ele>85.123</ele>
        <time>2011-04-10T05:56:27Z</time>
      </trkpt>
      <trkpt lat="48.44915" lon="-4.47628">
        <ele>86.235</ele>
        <time>2011-04-10T05:56:36Z</time>
      </trkpt>
      <trkpt lat="48.44938" lon="-4.47594">
        <ele>87.95</ele>
        <time>2011-04-10T05:56:43Z</time>
      </trkpt>
      <trkpt lat="48.44965" lon="-4.47489">
        <ele>91.296</ele>
        <time>2011-04-10T05:57:00Z</time>
      </trkpt>
      <trkpt lat="48.44998" lon="-4.47327">
        <ele>93.727</ele>
        <time>2011-04-10T05:57:24Z</time>
      </trkpt>
      <trkpt lat="48.45005" lon="-4.47264">
        <ele>92.699</ele>
        <time>2011-04-10T05:57:34Z</time>
      </trkpt>
      <trkpt lat="48.44992" lon="-4.47199">
        <ele>91.252</ele>
        <time>2011-04-10T05:57:40Z</time>
      </trkpt>
      <trkpt lat="48.45008" lon="-4.47166">
        <ele>89.519</ele>
        <time>2011-04-10T05:57:44Z</time>
      </trkpt>
      <trkpt lat="48.45036" lon="-4.47106">
        <ele>87.101</ele>
        <time>2011-04-10T05:57:51Z</time>
      </trkpt>
      <trkpt lat="48.45044" lon="-4.47084">
        <ele>85.369</ele>
        <time>2011-04-10T05:57:55Z</time>
      </trkpt>
      <trkpt lat="48.4506" lon="-4.47004">
        <ele>84.023</ele>
        <time>2011-04-10T05:58:00Z</time>
      </trkpt>
      <trkpt lat="48.45056" lon="-4.46965">
        <ele>82.854</ele>
        <time>2011-04-10T05:58:03Z</time>
      </trkpt>
      <trkpt lat="48.45032" lon="-4.46832">
        <ele>84.083</ele>
        <time>2011-04-10T05:58:15Z</time>
      </trkpt>
      <trkpt lat="48.45025" lon="-4.46798">
        <ele>85.224</ele>
        <time>2011-04-10T05:58:19Z</time>
      </trkpt>
      <trkpt lat="48.45027" lon="-4.46762">
        <ele>86.878</ele>
        <time>2011-04-10T05:58:25Z</time>
      </trkpt>
      <trkpt lat="48.45076" lon="-4.46696">
        <ele>90.259</ele>
        <time>2011-04-10T05:58:38Z</time>
      </trkpt>
      <trkpt lat="48.45118" lon="-4.4664">
        <ele>92.611</ele>
        <time>2011-04-10T05:58:51Z</time>
      </trkpt>
      <trkpt lat="48.45181" lon="-4.46615">
        <ele>90.218</ele>
        <time>2011-04-10T05:59:05Z</time>
      </trkpt>
      <trkpt lat="48.45247" lon="-4.46546">
        <ele>89.18</ele>
        <time>2011-04-10T05:59:20Z</time>
      </trkpt>
      <trkpt lat="48.45289" lon="-4.465">
        <ele>89.791</ele>
        <time>2011-04-10T05:59:30Z</time>
      </trkpt>
      <trkpt lat="48.45297" lon="-4.46491">
        <ele>89.589</ele>
        <time>2011-04-10T05:59:33Z</time>
      </trkpt>
      <trkpt lat="48.45321" lon="-4.46455">
        <ele>89.465</ele>
        <time>2011-04-10T05:59:38Z</time>
      </trkpt>
      <trkpt lat="48.45428" lon="-4.46314">
        <ele>90.797</ele>
        <time>2011-04-10T06:00:05Z</time>
      </trkpt>
      <trkpt lat="48.45521" lon="-4.46211">
        <ele>93.804</ele>
        <time>2011-04-10T06:00:29Z</time>
      </trkpt>
      <trkpt lat="48.45626" lon="-4.46124">
        <ele>94.624</ele>
        <time>2011-04-10T06:00:53Z</time>
      </trkpt>
      <trkpt lat="48.45752" lon="-4.46012">
        <ele>94.453</ele>
        <time>2011-04-10T06:01:20Z</time>
      </trkpt>
      <trkpt lat="48.45839" lon="-4.45911">
        <ele>92.684</ele>
        <time>2011-04-10T06:01:39Z</time>
      </trkpt>
      <trkpt lat="48.45885" lon="-4.45839">
        <ele>89.42</ele>
        <time>2011-04-10T06:01:50Z</time>
      </trkpt>
      <trkpt lat="48.4597" lon="-4.45706">
        <ele>88.04</ele>
        <time>2011-04-10T06:02:08Z</time>
      </trkpt>
      <trkpt lat="48.46061" lon="-4.45561">
        <ele>87.195</ele>
        <time>2011-04-10T06:02:30Z</time>
      </trkpt>
      <trkpt lat="48.46183" lon="-4.4537">
        <ele>86.585</ele>
        <time>2011-04-10T06:02:59Z</time>
      </trkpt>
      <trkpt lat="48.4626" lon="-4.45249">
        <ele>88.819</ele>
        <time>2011-04-10T06:03:20Z</time>
      </trkpt>
      <trkpt lat="48.46325" lon="-4.45144">
        <ele>92.096</ele>
        <time>2011-04-10T06:03:39Z</time>
      </trkpt>
      <trkpt lat="48.46378" lon="-4.45054">
        <ele>95.348</ele>
        <time>2011-04-10T06:03:58Z</time>
      </trkpt>
      <trkpt lat="48.46391" lon="-4.45">
        <ele>96.223</ele>
        <time>2011-04-10T06:04:04Z</time>
      </trkpt>
      <trkpt lat="48.46387" lon="-4.44972">
        <ele>96.505</ele>
        <time>2011-04-10T06:04:09Z</time>
      </trkpt>
      <trkpt lat="48.46387" lon="-4.44972">
        <ele>96.089</ele>
        <time>2011-04-10T06:04:11Z</time>
      </trkpt>
      <trkpt lat="48.46374" lon="-4.44921">
        <ele>95.853</ele>
        <time>2011-04-10T06:04:18Z</time>
      </trkpt>
      <trkpt lat="48.46409" lon="-4.44919">
        <ele>96.901</ele>
        <time>2011-04-10T06:04:24Z</time>
      </trkpt>
      <trkpt lat="48.46413" lon="-4.44925">
        <ele>97.039</ele>
        <time>2011-04-10T06:04:27Z</time>
      </trkpt>
      <trkpt lat="48.4646" lon="-4.44933">
        <ele>96.361</ele>
        <time>2011-04-10T06:04:35Z</time>
      </trkpt>
      <trkpt lat="48.46571" lon="-4.44839">
        <ele>95.496</ele>
        <time>2011-04-10T06:04:56Z</time>
      </trkpt>
      <trkpt lat="48.46706" lon="-4.44713">
        <ele>93.872</ele>
        <time>2011-04-10T06:05:21Z</time>
      </trkpt>
      <trkpt lat="48.46797" lon="-4.44603">
        <ele>93.128</ele>
        <time>2011-04-10T06:05:40Z</time>
      </trkpt>
      <trkpt lat="48.46905" lon="-4.44465">
        <ele>93.468</ele>
        <time>2011-04-10T06:06:02Z</time>
      </trkpt>
      <trkpt lat="48.46974" lon="-4.44388">
        <ele>96.623</ele>
        <time>2011-04-10T06:06:19Z</time>
      </trkpt>
      <trkpt lat="48.47077" lon="-4.443">
        <ele>98.721</ele>
        <time>2011-04-10T06:06:43Z</time>
      </trkpt>
      <trkpt lat="48.47191" lon="-4.44212">
        <ele>97.679</ele>
        <time>2011-04-10T06:07:06Z</time>
      </trkpt>
      <trkpt lat="48.47321" lon="-4.44107">
        <ele>98.212</ele>
        <time>2011-04-10T06:07:31Z</time>
      </trkpt>
      <trkpt lat="48.47468" lon="-4.4399">
        <ele>98.257</ele>
        <time>2011-04-10T06:08:01Z</time>
      </trkpt>
      <trkpt lat="48.47588" lon="-4.43912">
        <ele>97.363</ele>
        <time>2011-04-10T06:08:24Z</time>
      </trkpt>
      <trkpt lat="48.47754" lon="-4.43837">
        <ele>94.238</ele>
        <time>2011-04-10T06:08:53Z</time>
      </trkpt>
      <trkpt lat="48.47897" lon="-4.43765">
        <ele>92.305</ele>
        <time>2011-04-10T06:09:18Z</time>
      </trkpt>
      <trkpt lat="48.48024" lon="-4.43709">
        <ele>91.84</ele>
        <time>2011-04-10T06:09:40Z</time>
      </trkpt>
      <trkpt lat="48.48173" lon="-4.43644">
        <ele>92.677</ele>
        <time>2011-04-10T06:10:07Z</time>
      </trkpt>
      <trkpt lat="48.48329" lon="-4.43577">
        <ele>89.246</ele>
        <time>2011-04-10T06:10:34Z</time>
      </trkpt>
      <trkpt lat="48.4849" lon="-4.43508">
        <ele>88.557</ele>
        <time>2011-04-10T06:10:59Z</time>
      </trkpt>
      <trkpt lat="48.48616" lon="-4.43454">
        <ele>91.207</ele>
        <time>2011-04-10T06:11:22Z</time>
      </trkpt>
      <trkpt lat="48.48754" lon="-4.43422">
        <ele>89.156</ele>
        <time>2011-04-10T06:11:45Z</time>
      </trkpt>
      <trkpt lat="48.48836" lon="-4.43414">
        <ele>86.105</ele>
        <time>2011-04-10T06:11:57Z</time>
      </trkpt>
      <trkpt lat="48.48996" lon="-4.43399">
        <ele>83.713</ele>
        <time>2011-04-10T06:12:21Z</time>
      </trkpt>
      <trkpt lat="48.49109" lon="-4.43373">
        <ele>80.197</ele>
        <time>2011-04-10T06:12:38Z</time>
      </trkpt>
      <trkpt lat="48.49232" lon="-4.43318">
        <ele>76.964</ele>
        <time>2011-04-10T06:12:56Z</time>
      </trkpt>
      <trkpt lat="48.49285" lon="-4.43264">
        <ele>75.405</ele>
        <time>2011-04-10T06:13:05Z</time>
      </trkpt>
      <trkpt lat="48.49305" lon="-4.43238">
        <ele>73.929</ele>
        <time>2011-04-10T06:13:10Z</time>
      </trkpt>
      <trkpt lat="48.49322" lon="-4.43208">
        <ele>73.402</ele>
        <time>2011-04-10T06:13:14Z</time>
      </trkpt>
      <trkpt lat="48.49384" lon="-4.43111">
        <ele>70.258</ele>
        <time>2011-04-10T06:13:25Z</time>
      </trkpt>
      <trkpt lat="48.49434" lon="-4.43032">
        <ele>67.978</ele>
        <time>2011-04-10T06:13:34Z</time>
      </trkpt>
      <trkpt lat="48.49528" lon="-4.42926">
        <ele>70.035</ele>
        <time>2011-04-10T06:13:52Z</time>
      </trkpt>
      <trkpt lat="48.49548" lon="-4.42909">
        <ele>71.855</ele>
        <time>2011-04-10T06:13:57Z</time>
      </trkpt>
      <trkpt lat="48.4955" lon="-4.42908">
        <ele>72.734</ele>
        <time>2011-04-10T06:14:01Z</time>
      </trkpt>
      <trkpt lat="48.49588" lon="-4.42878">
        <ele>74.166</ele>
        <time>2011-04-10T06:14:10Z</time>
      </trkpt>
      <trkpt lat="48.49589" lon="-4.42906">
        <ele>73.705</ele>
        <time>2011-04-10T06:14:13Z</time>
      </trkpt>
      <trkpt lat="48.49585" lon="-4.4292">
        <ele>71.424</ele>
        <time>2011-04-10T06:14:16Z</time>
      </trkpt>
      <trkpt lat="48.49614" lon="-4.42954">
        <ele>68.692</ele>
        <time>2011-04-10T06:14:20Z</time>
      </trkpt>
      <trkpt lat="48.49711" lon="-4.42995">
        <ele>68.228</ele>
        <time>2011-04-10T06:14:36Z</time>
      </trkpt>
      <trkpt lat="48.49739" lon="-4.43003">
        <ele>69.277</ele>
        <time>2011-04-10T06:14:41Z</time>
      </trkpt>
      <trkpt lat="48.49776" lon="-4.43021">
        <ele>68.243</ele>
        <time>2011-04-10T06:14:48Z</time>
      </trkpt>
      <trkpt lat="48.4979" lon="-4.43015">
        <ele>69.721</ele>
        <time>2011-04-10T06:14:52Z</time>
      </trkpt>
      <trkpt lat="48.4979" lon="-4.43015">
        <ele>70.346</ele>
        <time>2011-04-10T06:14:53Z</time>
      </trkpt>
      <trkpt lat="48.49799" lon="-4.43024">
        <ele>71.942</ele>
        <time>2011-04-10T06:15:02Z</time>
      </trkpt>
      <trkpt lat="48.49837" lon="-4.43032">
        <ele>72.447</ele>
        <time>2011-04-10T06:15:12Z</time>
      </trkpt>
      <trkpt lat="48.49847" lon="-4.43038">
        <ele>72.501</ele>
        <time>2011-04-10T06:15:22Z</time>
      </trkpt>
    </trkseg>
  </trk>
</gpx>